Tracking 19854 objects as of 23-Sep-2019
HD Live streaming from Space Station
objects crossing your sky now

SL-16 DEB


SL-16 DEB is no longer on orbit


NORAD ID: 23304
Int'l Code: 1993-016AH
Perigee: N/A
Apogee: N/A
Inclination: N/A
Period: N/A
Semi major axis: N/A
RCS: N/A
Launch date: March 26, 1993
Source: Commonwealth of Independent States (former USSR) (CIS)
Launch site: TYURATAM MISSILE AND SPACE COMPLEX (TTMTR)
Decay date: 2015-02-12

Note: This is SATELLITE DEBRIS
aabbcc
Your satellite tracking list
Your tracking list is empty




NASA's NSSDC Master Catalog

Two Line Element Set (TLE):
1 23304U 93016AH  15042.24528834  .08978429  00000-0  35536-1 0  9999
2 23304 070.9100 223.3513 0017570 358.2137 001.9004 15.81481431394915
Source of the keplerian elements: AFSPC